TimeEST,TemperatureF,Dew PointF,Humidity,Sea Level PressureIn,VisibilityMPH,Wind Direction,Wind SpeedMPH,Gust SpeedMPH,PrecipitationIn,Events,Conditions,WindDirDegrees,DateUTC
12:02 AM,55.4,48.2,77,29.89,7.0,West,16.1,23.0,0.02,Rain,Rain,280,2005-01-14 05:02:00
12:20 AM,55.4,48.2,77,29.89,7.0,WNW,9.2,23.0,0.07,Rain,Rain,290,2005-01-14 05:20:00
12:41 AM,55.4,48.2,77,29.87,10.0,WNW,9.2,23.0,0.09,Rain,Rain,290,2005-01-14 05:41:00
1:00 AM,55.4,48.2,77,29.88,10.0,WNW,6.9,-,N/A,Rain,Rain,300,2005-01-14 06:00:00
1:20 AM,55.4,48.2,77,29.87,10.0,NW,13.8,20.7,N/A,Rain,Light Rain,310,2005-01-14 06:20:00
1:40 AM,55.4,48.2,77,29.86,10.0,West,13.8,24.2,N/A,Rain,Light Rain,270,2005-01-14 06:40:00
2:00 AM,55.4,48.2,77,29.86,10.0,West,6.9,17.3,N/A,,Drizzle,280,2005-01-14 07:00:00
2:20 AM,55.4,48.2,77,29.87,10.0,NW,13.8,21.9,N/A,Rain,Light Rain,310,2005-01-14 07:20:00
2:40 AM,55.4,48.2,77,29.86,10.0,WNW,17.3,26.5,0.01,Rain,Light Rain,300,2005-01-14 07:40:00
3:00 AM,55.4,48.2,77,29.87,10.0,WNW,13.8,34.5,N/A,,Drizzle,290,2005-01-14 08:00:00
3:20 AM,55.4,48.2,77,29.88,10.0,WNW,10.4,26.5,0.03,Rain,Light Rain,290,2005-01-14 08:20:00
4:00 AM,51.8,46.4,82,29.89,10.0,WNW,15.0,27.6,N/A,Rain,Rain,290,2005-01-14 09:00:00
4:20 AM,51.8,46.4,82,29.89,10.0,NW,15.0,18.4,0.01,Rain,Rain,320,2005-01-14 09:20:00
4:40 AM,50.0,44.6,82,29.91,7.0,NW,18.4,26.5,0.01,Rain,Rain,320,2005-01-14 09:40:00
5:00 AM,48.2,44.6,87,29.92,4.0,NW,16.1,27.6,N/A,,Drizzle,320,2005-01-14 10:00:00
5:22 AM,46.4,42.8,87,29.95,7.0,NW,16.1,28.8,N/A,,Overcast,320,2005-01-14 10:22:00
5:40 AM,46.4,41.0,81,29.96,10.0,NNW,17.3,26.5,N/A,,Light Drizzle,330,2005-01-14 10:40:00
6:00 AM,44.6,39.2,81,29.97,10.0,NNW,11.5,19.6,N/A,,Overcast,340,2005-01-14 11:00:00
6:20 AM,44.6,39.2,81,29.97,10.0,NNW,17.3,28.8,N/A,,Overcast,330,2005-01-14 11:20:00
7:00 AM,42.8,37.4,81,30.00,10.0,NW,21.9,29.9,N/A,,Overcast,320,2005-01-14 12:00:00
7:41 AM,39.2,35.6,87,30.03,10.0,NW,21.9,40.3,N/A,,Overcast,320,2005-01-14 12:41:00
8:00 AM,39.2,35.6,87,30.04,4.0,NW,23.0,33.4,N/A,,Overcast,320,2005-01-14 13:00:00
9:00 AM,39.2,33.8,81,30.10,7.0,NW,19.6,29.9,N/A,,Mostly Cloudy,320,2005-01-14 14:00:00
9:21 AM,39.2,32.0,75,30.11,10.0,NW,21.9,34.5,N/A,,Scattered Clouds,320,2005-01-14 14:21:00
9:40 AM,37.4,30.2,75,30.13,10.0,NW,20.7,32.2,N/A,,Scattered Clouds,320,2005-01-14 14:40:00
10:00 AM,39.2,32.0,75,30.15,10.0,NW,21.9,32.2,N/A,,Scattered Clouds,320,2005-01-14 15:00:00
10:21 AM,39.2,30.2,70,30.18,10.0,NW,16.1,28.8,N/A,,Scattered Clouds,320,2005-01-14 15:21:00
10:40 AM,39.2,28.4,65,30.20,10.0,NNW,18.4,28.8,N/A,,Scattered Clouds,330,2005-01-14 15:40:00
11:01 AM,37.4,26.6,65,30.19,10.0,NNW,18.4,26.5,N/A,,Scattered Clouds,330,2005-01-14 16:01:00
12:02 PM,37.4,26.6,65,30.14,10.0,NNW,19.6,29.9,N/A,,Clear,330,2005-01-14 17:02:00
12:21 PM,39.2,28.4,65,30.14,10.0,NW,17.3,29.9,N/A,,Clear,320,2005-01-14 17:21:00
1:00 PM,39.2,26.6,61,30.16,10.0,NW,11.5,25.3,N/A,,Clear,320,2005-01-14 18:00:00
1:20 PM,39.2,26.6,61,30.19,10.0,NW,15.0,24.2,N/A,,Clear,320,2005-01-14 18:20:00
2:00 PM,39.2,26.6,61,30.21,10.0,NW,13.8,19.6,N/A,,Clear,310,2005-01-14 19:00:00
2:20 PM,39.2,26.6,61,30.22,10.0,NW,9.2,18.4,N/A,,Clear,310,2005-01-14 19:20:00
2:40 PM,39.2,26.6,61,30.22,10.0,NW,13.8,19.6,N/A,,Clear,320,2005-01-14 19:40:00
3:00 PM,39.2,26.6,61,30.24,10.0,NW,6.9,17.3,N/A,,Clear,320,2005-01-14 20:00:00
3:20 PM,39.2,26.6,61,30.24,10.0,NW,9.2,-,N/A,,Clear,320,2005-01-14 20:20:00
3:40 PM,39.2,26.6,61,30.25,10.0,NW,10.4,-,N/A,,Clear,310,2005-01-14 20:40:00
4:01 PM,41.0,26.6,57,30.26,10.0,WNW,10.4,-,N/A,,Clear,300,2005-01-14 21:01:00
4:20 PM,41.0,26.6,57,30.27,10.0,NW,10.4,16.1,N/A,,Clear,320,2005-01-14 21:20:00
5:00 PM,39.2,26.6,61,30.30,10.0,NW,11.5,18.4,N/A,,Clear,310,2005-01-14 22:00:00
5:20 PM,37.4,24.8,60,30.31,10.0,NW,10.4,-,N/A,,Clear,310,2005-01-14 22:20:00
5:40 PM,37.4,26.6,65,30.31,10.0,NW,8.1,-,N/A,,Clear,310,2005-01-14 22:40:00
6:00 PM,37.4,26.6,65,30.32,10.0,NW,12.7,18.4,N/A,,Clear,310,2005-01-14 23:00:00
6:20 PM,35.6,26.6,70,30.33,10.0,NW,10.4,19.6,N/A,,Clear,320,2005-01-14 23:20:00
6:40 PM,35.6,26.6,70,30.34,10.0,NW,10.4,17.3,N/A,,Clear,320,2005-01-14 23:40:00
7:00 PM,35.6,24.8,65,30.34,10.0,NW,12.7,17.3,N/A,,Clear,320,2005-01-15 00:00:00
7:20 PM,35.6,24.8,65,30.35,10.0,NW,8.1,-,N/A,,Clear,320,2005-01-15 00:20:00
7:40 PM,35.6,24.8,65,30.36,10.0,NW,9.2,16.1,N/A,,Clear,310,2005-01-15 00:40:00
8:20 PM,35.6,26.6,70,30.39,10.0,Calm,Calm,-,N/A,,Clear,0,2005-01-15 01:20:00
8:40 PM,35.6,26.6,70,30.40,10.0,Calm,Calm,-,N/A,,Clear,0,2005-01-15 01:40:00
9:21 PM,35.6,26.6,70,30.39,10.0,NNW,8.1,-,N/A,,Clear,330,2005-01-15 02:21:00
9:40 PM,35.6,26.6,70,30.40,10.0,NW,9.2,-,N/A,,Clear,310,2005-01-15 02:40:00
10:00 PM,35.6,26.6,70,30.42,10.0,NNW,5.8,-,N/A,,Clear,340,2005-01-15 03:00:00
10:20 PM,32.0,24.8,75,30.42,10.0,NNW,8.1,-,N/A,,Clear,330,2005-01-15 03:20:00
10:40 PM,32.0,24.8,75,30.42,10.0,NW,6.9,-,N/A,,Clear,320,2005-01-15 03:40:00
11:00 PM,32.0,24.8,75,30.42,10.0,NNW,5.8,-,N/A,,Clear,330,2005-01-15 04:00:00
11:20 PM,32.0,24.8,75,30.42,10.0,NNW,10.4,-,N/A,,Clear,330,2005-01-15 04:20:00
11:40 PM,32.0,24.8,75,30.42,10.0,NNW,9.2,-,N/A,,Clear,330,2005-01-15 04:40:00